Location: Sungai Bunut
(2.6333°N, 113.7333°E)
Time: 11:06:19
(UTC+00:00)

Cosmos 405 - Pass Details

Date: 16 October 2021
Orbit: 445 x 455 km, 81.3° (Epoch: 28 November)

Event Time Altitude Azimuth Distance (km) Brightness Sun altitude
Rises 21:15:40 0° 1° (N) 2,436 6.5 -14.0°
Reaches altitude 10° 21:17:44 10° 5° (N) 1,570 5.6 -13.4°
Maximum altitude 21:21:06 59° 85° (E) 525 3.5 -12.6°
Drops below altitude 10° 21:24:31 10° 165° (SSE) 1,584 6.0 -11.8°
Sets 21:26:37 0° 169° (S) 2,461 6.9 -11.2°
